SCP
2 3 3 3 2 3 3 3 2 2 2 1 1 1 3 5 7 7 7 7 6 6 6 5 3 3 2 2 1 1 1 1 1 1 1 1 1 1 1 1 1 1 1
2 2 3 3 3 3 4 3 2 2 1 1 1 1 2 4 6 7 7 7 7 7 7 6 4 3 2 2 2 2 1 1 1 1 1 1 1 1 1 1 1 1 1
2 2 3 3 3 4 3 3 2 2 1 1 1 1 1 2 4 6 7 7 7 8 7 6 4 3 3 3 3 3 3 2 2 1 0 0 0 0 0 0 1 1 1
2 2 2 2 2 2 2 2 2 2 1 1 1 1 1 2 3 5 7 8 8 8 7 6 5 3 3 3 3 3 3 2 2 1 0 0 0 0 0 0 0 0 0
1 1 2 2 1 1 1 1 1 1 1 1 2 2 1 1 2 3 6 8 9 9 9 8 6 4 4 4 4 3 2 1 1 0 0 0 0 0 0 0 0 0 0
1 1 1 1 1 1 1 1 1 1 1 1 2 2 1 1 1 2 4 7 10 11 11 9 7 4 3 3 2 2 1 1 0 0 0 0 0 0 0 0 0 0 0
1 1 1 1 1 2 2 1 1 1 2 1 1 2 2 1 1 1 2 6 10 12 10 8 6 4 2 2 1 1 0 0 0 0 0 0 0 0 0 0 0 0 0
1 1 1 1 1 2 2 1 1 1 1 1 1 2 2 1 1 0 1 4 7 8 7 6 4 3 2 1 1 1 0 0 0 0 0 0 0 0 0 0 0 0 0
1 1 1 1 2 2 1 1 1 1 1 1 2 2 2 1 0 0 0 1 3 4 4 3 3 2 1 1 1 1 1 0 0 0 0 0 0 0 0 0 0 0 0
1 1 1 2 2 1 1 1 1 1 2 2 2 2 2 1 0 0 0 1 1 2 2 2 1 1 1 0 0 1 1 0 0 0 0 0 0 0 0 0 0 0 0
2 2 2 2 1 1 1 1 1 1 2 2 2 2 2 1 0 0 0 1 1 1 1 1 1 0 0 0 0 0 0 0 0 0 0 0 0 0 0 0 0 0 0
2 2 2 2 2 2 1 1 1 1 1 2 2 2 2 1 0 0 0 1 1 1 1 1 0 0 0 0 0 0 0 0 0 0 0 0 0 0 0 0 0 0 0
2 2 2 2 2 2 2 1 1 1 1 1 1 2 1 1 0 0 0 0 1 1 0 0 0 0 0 0 0 0 0 0 0 0 0 0 0 0 0 0 0 0 0
2 2 2 2 2 2 2 2 1 1 1 1 1 1 1 1 0 0 0 0 0 0 0 0 0 0 0 0 0 0 0 0 0 0 0 0 1 1 1 0 0 0 0
1 1 1 1 2 2 2 2 1 1 0 0 1 1 1 0 0 0 0 0 0 0 0 0 0 0 0 0 0 0 0 0 0 1 1 1 1 1 1 0 0 0 0
1 1 1 1 1 1 1 1 1 1 0 0 0 0 0 0 0 0 0 0 0 0 0 0 0 0 0 0 0 0 0 1 1 1 1 1 1 0 0 0 0 0 0
1 1 1 1 1 1 1 1 1 0 0 0 0 0 0 0 0 0 0 0 0 0 0 0 0 0 0 0 0 0 0 1 1 1 1 1 1 1 1 1 1 0 0
1 1 1 1 1 1 1 1 1 1 0 0 0 0 0 0 0 0 0 0 0 0 0 0 0 0 0 0 0 0 0 0 1 1 0 1 1 1 1 1 1 1 0
1 1 1 1 1 1 1 1 1 1 1 1 1 1 0 0 0 0 0 0 0 0 0 0 0 0 0 0 0 0 0 0 0 0 0 1 1 1 1 1 0 0 0
1 0 0 1 1 1 1 1 1 1 1 1 1 1 1 1 0 0 1 1 1 1 0 0 0 0 0 0 0 0 0 0 0 0 0 1 1 1 1 0 0 0 0
0 0 0 0 1 1 1 1 1 1 1 1 1 1 1 1 1 1 1 1 1 1 1 0 0 0 0 0 0 0 0 0 1 0 0 1 1 1 0 0 0 0 0
0 0 0 0 0 1 1 1 1 1 1 1 1 1 1 1 1 1 1 1 1 0 0 0 0 0 0 0 0 0 0 0 1 0 0 0 0 0 0 0 0 0 0
0 0 0 0 0 0 0 0 0 0 0 0 0 0 0 0 0 0 0 0 0 0 0 0 0 0 0 0 0 0 0 0 0 0 0 0 0 0 0 0 0 0 0
0 0 0 0 0 0 0 0 0 0 0 0 0 0 0 0 0 0 0 0 0 0 0 0 0 0 0 0 0 0 0 0 0 0 0 0 0 0 0 0 0 0 0
0 0 0 0 0 0 0 0 0 0 0 0 0 0 0 0 0 0 0 0 0 0 0 0 0 0 0 0 0 0 0 0 0 0 0 0 0 0 0 0 0 0 0
0 0 0 0 0 0 0 0 0 0 0 0 1 1 0 0 0 0 0 0 0 0 0 0 0 0 0 0 0 0 0 0 0 0 0 0 0 0 0 0 0 0 0
Wind_Speed
1 1 2 2 2 1 1 1 2 2 2 2 2 2 2 2 2 2 2 2 2 2 2 2 2 2 1 2 2 3 3 3 5 4 2 2 2 2 2 2 2 3 4
1 1 1 1 1 1 2 2 2 2 2 2 2 2 2 2 2 2 2 2 2 2 2 1 2 1 2 2 2 3 3 3 3 4 2 2 2 2 1 2 2 2 3
2 2 2 2 2 2 2 2 2 2 2 3 2 2 2 2 2 2 2 2 2 2 2 2 2 1 2 2 3 3 3 3 2 2 2 2 1 1 0 2 2 1 3
3 2 2 3 2 2 2 2 2 1 2 2 2 3 3 3 2 2 2 2 2 2 1 1 1 1 1 2 2 2 3 2 2 1 1 2 1 1 1 1 2 2 2
3 3 2 2 2 2 2 2 2 2 3 2 2 2 3 3 3 3 2 2 1 2 1 1 2 1 1 2 2 2 2 2 2 1 1 1 1 1 1 2 2 2 2
4 3 3 2 2 2 2 2 3 2 2 2 2 3 4 4 4 3 2 2 2 2 1 1 2 2 1 2 3 3 3 2 2 2 1 2 2 1 1 1 2 2 2
4 4 3 2 2 2 3 2 3 2 2 2 2 2 3 3 3 2 2 2 2 2 2 2 2 2 1 1 2 3 3 5 5 3 2 3 3 2 2 2 2 2 3
4 3 3 2 3 2 2 3 3 2 2 2 2 2 2 3 3 2 2 1 2 3 2 2 2 1 2 2 2 2 2 2 3 4 4 4 3 2 2 3 3 4 4
4 3 3 2 3 2 2 2 2 2 2 2 2 2 2 2 1 2 2 1 2 2 1 2 2 1 2 3 2 2 2 3 3 2 4 4 5 6 4 2 3 3 4
4 3 2 2 2 2 2 2 2 2 2 2 2 2 2 2 0 1 2 2 2 2 1 1 1 0 2 2 1 2 3 3 3 3 3 5 6 7 9 6 5 4 3
4 2 1 1 2 2 1 2 2 2 2 2 2 2 2 1 1 1 1 1 2 3 2 2 1 1 2 3 2 2 4 4 3 4 5 4 4 4 4 5 5 4 4
3 2 2 1 2 2 2 2 2 2 2 1 1 2 1 1 1 0 1 2 4 3 3 2 2 3 4 5 4 5 6 4 3 4 4 4 3 3 3 4 4 5 5
3 2 2 2 2 2 2 2 2 2 1 1 1 2 1 1 1 1 1 3 4 3 3 4 6 7 6 5 7 8 6 4 4 4 4 4 3 3 3 3 4 5 6
2 2 2 2 2 1 1 1 1 1 1 1 2 2 2 2 2 2 2 2 3 2 3 4 6 8 7 6 6 5 4 4 4 4 4 3 3 3 3 3 3 3 4
2 2 2 2 2 1 0 1 0 1 1 1 2 2 2 2 2 3 3 3 3 4 4 3 4 4 3 2 2 2 2 2 3 3 3 3 3 3 3 3 2 3 3
2 2 2 2 2 1 1 1 1 1 1 2 2 2 1 1 2 4 4 5 5 4 3 3 4 4 4 3 2 2 2 2 2 3 3 3 4 4 4 3 3 3 3
2 2 3 3 2 2 2 2 2 1 2 3 3 3 3 4 4 4 5 6 6 4 2 3 3 3 4 4 3 2 2 2 2 3 3 3 4 4 4 4 3 3 4
3 3 3 3 3 2 2 2 2 2 2 2 3 5 5 6 6 5 4 4 3 2 3 3 3 3 3 3 3 3 3 3 3 3 3 3 4 4 4 4 4 4 5
3 3 2 3 3 3 2 2 1 1 1 1 1 2 4 5 6 5 3 3 3 3 3 3 3 3 3 3 3 3 3 3 3 3 3 4 4 4 4 5 4 6 6
2 3 3 3 3 3 2 2 1 1 0 1 1 0 1 2 2 1 2 3 3 3 3 3 3 3 3 4 4 4 4 3 4 4 4 4 4 4 4 5 5 5 5
3 2 3 3 3 3 3 2 1 1 1 1 1 1 1 2 2 1 1 2 2 3 3 3 3 4 4 4 4 4 5 4 4 5 5 5 5 5 5 5 5 5 5
3 2 2 3 2 2 3 3 2 2 2 2 1 1 2 1 1 1 2 2 2 2 3 3 3 3 3 4 4 4 5 5 5 5 6 6 6 6 6 6 5 5 5
4 3 2 2 2 2 3 2 2 2 2 3 2 1 1 1 1 2 2 2 3 3 3 3 3 4 4 3 3 4 5 5 5 6 6 6 6 6 6 6 7 7 6
4 3 3 2 2 2 2 1 1 2 2 2 2 2 2 1 2 2 2 2 2 3 3 3 4 5 7 6 5 5 5 5 6 5 7 7 7 6 6 6 7 7 6
4 3 3 2 2 1 1 1 1 2 3 2 2 2 2 2 2 2 3 3 3 3 4 4 4 6 8 10 8 7 7 7 6 6 7 6 7 6 7 8 7 7 7
3 3 3 2 2 1 1 1 1 1 2 2 2 2 2 2 3 3 3 3 3 4 4 4 6 7 8 8 8 7 7 7 8 8 6 5 6 5 7 6 8 7 7
Wind_Direction
41 40 359 342 337 339 313 322 325 329 327 319 319 305 292 291 273 252 257 247 231 242 257 254 258 263 278 280 285 281 269 260 267 278 273 256 255 267 249 246 207 190 192
19 45 26 323 319 310 325 329 324 334 328 317 309 311 298 306 290 251 253 253 250 257 260 271 281 289 285 291 298 290 281 269 263 280 287 278 260 251 234 249 248 216 197
1 17 16 345 330 332 334 335 328 334 330 318 306 312 313 301 293 265 242 250 255 251 252 257 272 279 283 296 293 290 287 287 280 284 292 298 287 278 267 266 263 253 238
359 15 19 349 325 338 342 334 318 321 322 324 321 317 317 311 312 309 294 271 258 270 267 276 278 278 294 302 292 298 301 302 298 286 281 287 287 274 251 254 265 250 258
342 344 346 332 328 333 332 336 325 323 327 331 329 323 323 329 336 334 321 308 315 316 335 348 342 337 300 276 288 306 305 300 303 300 286 288 285 285 268 264 266 268 270
331 331 328 330 336 334 327 339 324 316 321 326 342 347 351 346 359 344 320 317 317 320 325 321 298 249 215 220 237 254 252 259 282 284 287 292 292 284 286 283 279 278 276
320 319 332 343 337 335 334 337 325 318 321 333 346 2 353 343 343 311 313 308 311 296 280 275 287 302 264 235 243 237 239 236 232 244 264 273 280 289 300 295 288 286 275
304 309 323 329 320 328 332 335 333 326 324 334 333 336 332 338 331 332 321 274 276 271 269 276 280 299 326 322 293 290 281 276 247 227 237 252 264 279 267 265 266 273 271
296 300 304 315 316 324 327 324 321 316 321 322 321 325 337 352 332 322 318 296 285 299 302 315 296 312 352 341 310 303 301 301 314 279 249 256 260 264 260 262 263 265 276
298 292 289 309 313 314 310 311 308 297 296 305 320 329 329 337 334 276 297 302 319 326 313 318 357 359 351 356 317 305 299 301 318 314 288 264 251 250 242 228 237 253 266
298 295 292 297 283 282 291 302 285 275 286 293 301 303 315 334 45 168 286 305 312 313 310 318 342 351 323 320 295 274 270 287 294 280 274 262 250 243 237 228 224 232 250
297 294 295 282 279 288 273 271 275 258 260 269 284 303 312 331 20 143 245 267 285 299 301 306 302 300 303 293 278 264 275 288 274 273 273 269 260 253 247 247 242 236 236
306 303 295 282 256 257 260 258 277 255 241 281 318 324 338 5 39 17 299 290 289 287 296 297 294 289 292 278 258 263 270 266 264 268 277 280 272 266 257 252 259 249 249
313 301 287 275 267 267 270 268 304 334 335 328 328 333 347 8 24 11 342 331 324 315 316 311 301 285 275 268 270 257 240 248 258 269 277 280 283 281 271 261 261 261 260
306 294 289 288 282 274 323 348 326 14 311 295 319 328 339 351 337 333 324 327 332 340 324 299 293 299 294 276 270 267 259 257 261 265 273 283 284 278 273 274 266 264 267
296 301 297 289 284 267 205 203 325 238 241 257 257 259 298 237 290 322 328 325 325 328 321 296 305 307 305 307 302 303 310 310 306 306 306 304 302 296 290 284 276 268 270
286 291 289 287 281 264 254 239 220 208 240 259 248 234 230 250 274 297 313 323 312 313 292 291 304 314 321 328 329 329 328 321 317 315 310 307 311 313 310 306 300 291 285
282 288 285 286 284 280 269 263 245 219 210 228 221 219 232 247 257 271 304 326 307 288 284 294 305 314 324 326 323 319 317 318 320 317 314 314 311 310 310 308 307 307 301
287 286 291 298 298 301 293 285 272 242 218 234 198 201 235 243 246 266 277 275 291 306 310 315 321 330 330 323 318 320 321 319 326 325 322 322 321 319 314 314 309 306 300
254 265 276 279 287 293 296 303 315 344 321 267 246 176 207 247 259 267 259 273 293 310 321 327 331 338 333 329 331 336 334 335 343 340 330 322 314 305 307 310 308 307 302
265 239 230 255 273 288 300 303 317 319 310 300 327 121 220 268 289 308 305 303 323 334 336 336 338 345 345 340 339 338 342 346 348 339 331 326 321 317 309 303 303 305 311
282 270 254 258 266 287 299 299 307 314 312 317 323 179 209 262 332 353 346 341 343 335 339 339 340 343 344 345 347 345 347 351 345 338 331 324 321 318 316 315 314 311 315
271 271 266 267 276 275 276 299 328 336 334 338 348 4 72 348 3 8 0 9 6 355 351 348 344 352 1 9 9 11 5 355 339 329 322 317 318 316 314 314 316 315 316
273 277 278 271 268 280 297 316 332 334 334 347 356 12 29 41 25 14 3 11 7 1 355 359 1 8 18 21 22 31 25 359 336 328 325 313 313 319 323 325 324 326 329
266 272 277 282 290 299 313 318 343 342 349 0 6 16 24 26 23 22 21 18 9 11 9 11 13 25 33 37 34 26 16 4 355 340 326 318 316 324 333 333 335 337 339
262 269 272 281 291 293 295 299 342 355 350 359 23 33 13 18 37 33 24 16 8 13 13 15 29 46 39 37 33 27 11 0 353 344 329 318 325 343 346 337 339 341 343